sat.trackr.live / text

‹ back to catalog

STARLINK-34772

NORAD 65020 · 2025-161F

PAYLOAD ACTIVE UNKNOWN

§ Identity

Operator
Country
US
Launch date
2025-07-30
Launch site
AFWTR
Launch vehicle
Mass (kg)
RCS (m²)

Purposes: comms

External: N2YO · Heavens-Above · Gunter

§ Orbital elements

Epoch: 2026-09-20T03:16:38.662176Z

Period
93.85 min
Inclination
53.1559°
Eccentricity
0.0001062
Mean motion
15.34401290 rev/d
Perigee alt
462.0 km
Apogee alt
463.4 km
Semi-major
6,840.8 km
B*
3.8334e-4
RAAN
107.2533°
Arg perigee
99.4716°
Mean anomaly
260.6407°
Rev number
6,526

§ Raw data

STARLINK-347721 65020U 25161F   26263.13655859  .00012598  00000+0  38334-3 0  99972 65020  53.1559 107.2533 0001062  99.4716 260.6407 15.34401290 65262

JSON: /api/v1/satellites/65020 · /tle

For live sub-satellite position, see the globe view (requires WebGL).

§ Visibility from observer

Set your observer location to see the next 7 days of passes ≥ 10°. The values pass through the URL so the page stays shareable.

No JS? Fill the form by hand. The geolocation button needs JavaScript.